Time,TemperatureF,DewpointF,PressureIn,WindDirection,WindDirectionDegrees,WindSpeedMPH,WindSpeedGustMPH,Humidity,HourlyPrecipIn,Conditions,Clouds,dailyrainin,SoftwareType,DateUTC
2013-05-14 00:03:00,36.0,29.0,30.21,NW,307,0.0,0.0,74,0.00,,,0.00,,2013-05-14 04:03:00,
2013-05-14 00:13:00,36.0,29.0,30.21,NW,307,0.0,0.0,74,0.00,,,0.00,,2013-05-14 04:13:00,
2013-05-14 00:23:00,36.0,29.0,30.21,NW,307,0.0,0.0,74,0.00,,,0.00,,2013-05-14 04:23:00,
2013-05-14 00:32:00,35.0,28.0,30.21,NW,307,0.0,0.0,75,0.00,,,0.00,,2013-05-14 04:32:00,
2013-05-14 00:43:00,35.0,28.0,30.21,NW,307,0.0,0.0,75,0.00,,,0.00,,2013-05-14 04:43:00,
2013-05-14 00:53:00,35.0,29.0,30.21,NW,307,0.0,0.0,77,0.00,,,0.00,,2013-05-14 04:53:00,
2013-05-14 01:02:00,35.0,29.0,30.21,NW,307,0.0,0.0,78,0.00,,,0.00,,2013-05-14 05:02:00,
2013-05-14 01:12:00,35.0,29.0,30.21,NW,307,0.0,0.0,78,0.00,,,0.00,,2013-05-14 05:12:00,
2013-05-14 01:22:00,34.0,28.0,30.21,NW,307,0.0,0.0,80,0.00,,,0.00,,2013-05-14 05:22:00,
2013-05-14 01:32:00,34.0,29.0,30.21,NW,307,0.0,0.0,83,0.00,,,0.00,,2013-05-14 05:32:00,
2013-05-14 01:42:00,34.0,30.0,30.22,NW,307,0.0,0.0,85,0.00,,,0.00,,2013-05-14 05:42:00,
2013-05-14 01:52:00,34.0,30.0,30.22,NW,307,0.0,0.0,85,0.00,,,0.00,,2013-05-14 05:52:00,
2013-05-14 02:01:00,33.0,29.0,30.21,NW,307,0.0,0.0,86,0.00,,,0.00,,2013-05-14 06:01:00,
2013-05-14 02:12:00,33.0,29.0,30.21,NW,307,0.0,0.0,86,0.00,,,0.00,,2013-05-14 06:12:00,
2013-05-14 02:22:00,33.0,30.0,30.21,NW,307,0.0,0.0,88,0.00,,,0.00,,2013-05-14 06:22:00,
2013-05-14 02:32:00,32.0,29.0,30.21,NW,307,0.0,0.0,89,0.00,,,0.00,,2013-05-14 06:32:00,
2013-05-14 02:42:00,32.0,29.0,30.21,NW,307,0.0,0.0,89,0.00,,,0.00,,2013-05-14 06:42:00,
2013-05-14 02:52:00,32.0,29.0,30.21,NW,307,0.0,0.0,90,0.00,,,0.00,,2013-05-14 06:52:00,
2013-05-14 03:02:00,32.0,30.0,30.21,NW,307,0.0,0.0,91,0.00,,,0.00,,2013-05-14 07:02:00,
2013-05-14 03:11:00,32.0,30.0,30.21,NW,307,0.0,0.0,91,0.00,,,0.00,,2013-05-14 07:11:00,
2013-05-14 03:21:00,32.0,30.0,30.21,NW,307,0.0,0.0,91,0.00,,,0.00,,2013-05-14 07:21:00,
2013-05-14 03:32:00,32.0,30.0,30.21,NW,307,0.0,0.0,92,0.00,,,0.00,,2013-05-14 07:32:00,
2013-05-14 03:42:00,32.0,30.0,30.21,NW,307,0.0,0.0,92,0.00,,,0.00,,2013-05-14 07:42:00,
2013-05-14 03:52:00,32.0,30.0,30.21,NW,307,0.0,0.0,92,0.00,,,0.00,,2013-05-14 07:52:00,
2013-05-14 04:02:00,32.0,30.0,30.21,NW,307,0.0,0.0,93,0.00,,,0.00,,2013-05-14 08:02:00,
2013-05-14 04:11:00,32.0,30.0,30.21,NW,307,0.0,0.0,93,0.00,,,0.00,,2013-05-14 08:11:00,
2013-05-14 04:21:00,32.0,30.0,30.21,NW,307,0.0,0.0,93,0.00,,,0.00,,2013-05-14 08:21:00,
2013-05-14 04:32:00,32.0,30.0,30.21,NW,307,0.0,0.0,93,0.00,,,0.00,,2013-05-14 08:32:00,
2013-05-14 04:42:00,31.0,29.0,30.21,NW,307,0.0,0.0,93,0.00,,,0.00,,2013-05-14 08:42:00,
2013-05-14 04:52:00,31.0,29.0,30.21,NW,307,0.0,0.0,93,0.00,,,0.00,,2013-05-14 08:52:00,
2013-05-14 05:02:00,31.0,29.0,30.21,NW,307,0.0,0.0,93,0.00,,,0.00,,2013-05-14 09:02:00,
2013-05-14 05:11:00,31.0,29.0,30.21,NW,307,0.0,0.0,93,0.00,,,0.00,,2013-05-14 09:11:00,
2013-05-14 05:22:00,31.0,29.0,30.21,NW,307,0.0,0.0,93,0.00,,,0.00,,2013-05-14 09:22:00,
2013-05-14 05:32:00,31.0,29.0,30.20,NW,307,0.0,0.0,94,0.00,,,0.00,,2013-05-14 09:32:00,
2013-05-14 05:44:00,31.0,29.0,30.20,NW,307,0.0,0.0,94,0.01,,,0.01,,2013-05-14 09:44:00,
2013-05-14 05:54:00,31.0,29.0,30.20,NW,307,0.0,0.0,94,0.01,,,0.01,,2013-05-14 09:54:00,
2013-05-14 06:05:00,31.0,29.0,30.20,NW,307,0.0,0.0,94,0.01,,,0.01,,2013-05-14 10:05:00,
2013-05-14 06:14:00,31.0,29.0,30.20,NW,307,0.0,0.0,94,0.01,,,0.01,,2013-05-14 10:14:00,
2013-05-14 06:25:00,31.0,29.0,30.20,NW,307,0.0,0.0,94,0.01,,,0.01,,2013-05-14 10:25:00,
2013-05-14 06:33:00,31.0,29.0,30.21,NW,307,0.0,1.0,94,0.01,,,0.01,,2013-05-14 10:33:00,
2013-05-14 06:42:00,31.0,29.0,30.21,NW,307,0.0,1.0,94,0.01,,,0.01,,2013-05-14 10:42:00,
2013-05-14 06:52:00,31.0,29.0,30.21,NW,307,0.0,0.0,94,0.00,,,0.01,,2013-05-14 10:52:00,
2013-05-14 07:02:00,32.0,31.0,30.22,NW,307,0.0,0.0,95,0.00,,,0.01,,2013-05-14 11:02:00,
2013-05-14 07:11:00,32.0,31.0,30.22,NW,307,0.0,0.0,95,0.00,,,0.01,,2013-05-14 11:11:00,
2013-05-14 07:22:00,33.0,32.0,30.22,NW,307,0.0,0.0,95,0.00,,,0.01,,2013-05-14 11:22:00,
2013-05-14 07:32:00,33.0,32.0,30.22,NW,307,0.0,0.0,95,0.00,,,0.01,,2013-05-14 11:32:00,
2013-05-14 07:43:00,33.0,32.0,30.22,NW,307,0.0,0.0,95,0.00,,,0.01,,2013-05-14 11:43:00,
2013-05-14 07:53:00,33.0,32.0,30.22,NW,307,0.0,0.0,95,0.00,,,0.01,,2013-05-14 11:53:00,
2013-05-14 08:03:00,35.0,34.0,30.22,NW,307,0.0,1.0,95,0.00,,,0.01,,2013-05-14 12:03:00,
2013-05-14 08:12:00,35.0,34.0,30.22,NW,307,0.0,1.0,95,0.00,,,0.01,,2013-05-14 12:12:00,
2013-05-14 08:21:00,36.0,35.0,30.23,NW,319,0.0,1.0,95,0.00,,,0.01,,2013-05-14 12:21:00,
2013-05-14 08:32:00,37.0,35.0,30.23,NW,320,0.0,1.0,93,0.00,,,0.01,,2013-05-14 12:32:00,
2013-05-14 08:42:00,38.0,35.0,30.23,NW,320,0.0,1.0,90,0.00,,,0.01,,2013-05-14 12:42:00,
2013-05-14 08:52:00,38.0,35.0,30.23,NW,320,0.0,1.0,90,0.00,,,0.01,,2013-05-14 12:52:00,
2013-05-14 09:01:00,40.0,35.0,30.23,SE,142,1.0,4.0,81,0.00,,,0.01,,2013-05-14 13:01:00,
2013-05-14 09:11:00,40.0,35.0,30.23,SE,142,1.0,4.0,81,0.00,,,0.01,,2013-05-14 13:11:00,
2013-05-14 09:22:00,42.0,34.0,30.22,SSE,155,1.0,4.0,74,0.01,,,0.02,,2013-05-14 13:22:00,
2013-05-14 09:32:00,43.0,34.0,30.22,SW,227,1.0,4.0,71,0.01,,,0.02,,2013-05-14 13:32:00,
2013-05-14 09:41:00,43.0,34.0,30.22,SW,227,1.0,4.0,71,0.01,,,0.02,,2013-05-14 13:41:00,
2013-05-14 09:52:00,43.0,34.0,30.22,SW,227,1.0,4.0,71,0.01,,,0.02,,2013-05-14 13:52:00,
2013-05-14 10:01:00,47.0,36.0,30.21,SE,131,1.0,4.0,66,0.01,,,0.02,,2013-05-14 14:01:00,
2013-05-14 10:11:00,47.0,35.0,30.20,SW,215,1.0,4.0,63,0.00,,,0.02,,2013-05-14 14:11:00,
2013-05-14 10:22:00,47.0,35.0,30.20,SW,215,1.0,4.0,63,0.00,,,0.02,,2013-05-14 14:22:00,
2013-05-14 10:32:00,49.0,37.0,30.19,WSW,257,2.0,7.0,63,0.00,,,0.02,,2013-05-14 14:32:00,
2013-05-14 10:42:00,50.0,38.0,30.18,WNW,294,3.0,6.0,62,0.00,,,0.02,,2013-05-14 14:42:00,
2013-05-14 10:52:00,50.0,38.0,30.18,WNW,294,3.0,6.0,62,0.00,,,0.02,,2013-05-14 14:52:00,
2013-05-14 11:01:00,51.0,38.0,30.17,WSW,243,2.0,4.0,60,0.01,,,0.03,,2013-05-14 15:01:00,
2013-05-14 11:12:00,51.0,38.0,30.17,WSW,243,2.0,4.0,60,0.01,,,0.03,,2013-05-14 15:12:00,
2013-05-14 11:22:00,51.0,37.0,30.17,WSW,239,1.0,6.0,59,0.01,,,0.03,,2013-05-14 15:22:00,
2013-05-14 11:33:00,52.0,38.0,30.17,SSE,160,1.0,4.0,58,0.01,,,0.03,,2013-05-14 15:33:00,
2013-05-14 11:43:00,52.0,38.0,30.17,West,271,1.0,5.0,59,0.01,,,0.03,,2013-05-14 15:43:00,
2013-05-14 11:53:00,52.0,38.0,30.17,West,271,1.0,5.0,59,0.01,,,0.03,,2013-05-14 15:53:00,
2013-05-14 12:02:00,52.0,38.0,30.16,WSW,237,2.0,6.0,58,0.00,,,0.03,,2013-05-14 16:02:00,
2013-05-14 12:12:00,52.0,38.0,30.16,WSW,237,2.0,6.0,58,0.00,,,0.03,,2013-05-14 16:12:00,
2013-05-14 12:23:00,52.0,38.0,30.16,NW,313,2.0,7.0,59,0.00,,,0.03,,2013-05-14 16:23:00,
2013-05-14 12:33:00,52.0,38.0,30.15,ESE,117,0.0,4.0,59,0.00,,,0.03,,2013-05-14 16:33:00,
2013-05-14 12:43:00,52.0,38.0,30.15,ESE,117,0.0,4.0,59,0.00,,,0.03,,2013-05-14 16:43:00,
2013-05-14 12:54:00,53.0,38.0,30.15,WNW,287,1.0,3.0,56,0.00,,,0.03,,2013-05-14 16:54:00,
2013-05-14 13:03:00,53.0,37.0,30.13,SW,234,1.0,4.0,55,0.00,,,0.03,,2013-05-14 17:03:00,
2013-05-14 13:13:00,53.0,37.0,30.13,SW,234,1.0,4.0,55,0.00,,,0.03,,2013-05-14 17:13:00,
2013-05-14 13:24:00,54.0,37.0,30.13,SSW,213,2.0,6.0,53,0.00,,,0.03,,2013-05-14 17:24:00,
2013-05-14 13:33:00,54.0,36.0,30.13,West,261,1.0,8.0,50,0.00,,,0.03,,2013-05-14 17:33:00,
2013-05-14 13:43:00,54.0,36.0,30.13,West,261,1.0,8.0,50,0.00,,,0.03,,2013-05-14 17:43:00,
2013-05-14 13:52:00,56.0,39.0,30.12,SW,232,2.0,5.0,53,0.00,,,0.03,,2013-05-14 17:52:00,
2013-05-14 14:02:00,58.0,39.0,30.10,SE,136,1.0,5.0,49,0.00,,,0.03,,2013-05-14 18:02:00,
2013-05-14 14:12:00,58.0,39.0,30.10,SE,136,1.0,5.0,49,0.00,,,0.03,,2013-05-14 18:12:00,
2013-05-14 14:22:00,57.0,36.0,30.11,East,96,2.0,5.0,46,0.00,,,0.03,,2013-05-14 18:22:00,
2013-05-14 14:32:00,58.0,40.0,30.10,South,173,0.0,5.0,52,0.00,,,0.03,,2013-05-14 18:32:00,
2013-05-14 14:42:00,58.0,40.0,30.10,South,173,0.0,5.0,52,0.00,,,0.03,,2013-05-14 18:42:00,
2013-05-14 14:52:00,57.0,37.0,30.10,SW,227,1.0,4.0,47,0.00,,,0.03,,2013-05-14 18:52:00,
2013-05-14 15:01:00,58.0,37.0,30.10,ESE,116,1.0,4.0,45,0.00,,,0.03,,2013-05-14 19:01:00,
2013-05-14 15:12:00,58.0,37.0,30.10,ESE,116,1.0,4.0,45,0.00,,,0.03,,2013-05-14 19:12:00,
2013-05-14 15:22:00,59.0,40.0,30.09,ENE,76,1.0,3.0,50,0.00,,,0.03,,2013-05-14 19:22:00,
2013-05-14 15:32:00,61.0,38.0,30.08,SE,126,2.0,5.0,43,0.00,,,0.03,,2013-05-14 19:32:00,
2013-05-14 15:42:00,61.0,38.0,30.08,SE,126,2.0,5.0,43,0.00,,,0.03,,2013-05-14 19:42:00,
2013-05-14 15:53:00,59.0,37.0,30.07,SE,128,1.0,4.0,43,0.00,,,0.03,,2013-05-14 19:53:00,
2013-05-14 16:02:00,59.0,40.0,30.07,SE,139,1.0,3.0,49,0.00,,,0.03,,2013-05-14 20:02:00,
2013-05-14 16:11:00,59.0,40.0,30.07,SE,139,1.0,3.0,49,0.00,,,0.03,,2013-05-14 20:11:00,
2013-05-14 16:23:00,60.0,39.0,30.06,SE,134,1.0,5.0,45,0.00,,,0.03,,2013-05-14 20:23:00,
2013-05-14 16:33:00,59.0,40.0,30.04,ESE,113,1.0,4.0,49,0.00,,,0.03,,2013-05-14 20:33:00,
2013-05-14 16:44:00,59.0,39.0,30.04,ESE,105,1.0,5.0,47,0.00,,,0.03,,2013-05-14 20:44:00,
2013-05-14 16:52:00,59.0,39.0,30.04,ESE,105,1.0,5.0,47,0.00,,,0.03,,2013-05-14 20:52:00,
2013-05-14 17:03:00,60.0,40.0,30.03,ESE,111,2.0,7.0,47,0.00,,,0.03,,2013-05-14 21:03:00,
2013-05-14 17:12:00,60.0,40.0,30.03,ESE,111,2.0,7.0,47,0.00,,,0.03,,2013-05-14 21:12:00,
2013-05-14 17:23:00,61.0,41.0,30.03,North,351,2.0,9.0,47,0.00,,,0.03,,2013-05-14 21:23:00,
2013-05-14 17:33:00,61.0,40.0,30.01,SE,126,1.0,6.0,45,0.00,,,0.03,,2013-05-14 21:33:00,
2013-05-14 17:43:00,61.0,40.0,30.01,East,92,1.0,7.0,45,0.00,,,0.03,,2013-05-14 21:43:00,
2013-05-14 17:53:00,61.0,40.0,30.01,East,92,1.0,7.0,45,0.00,,,0.03,,2013-05-14 21:53:00,
2013-05-14 18:03:00,61.0,38.0,29.99,ESE,121,1.0,5.0,43,0.00,,,0.03,,2013-05-14 22:03:00,
2013-05-14 18:13:00,61.0,38.0,29.99,ESE,121,1.0,5.0,43,0.00,,,0.03,,2013-05-14 22:13:00,
2013-05-14 18:24:00,61.0,40.0,29.99,East,101,1.0,7.0,45,0.00,,,0.03,,2013-05-14 22:24:00,
2013-05-14 18:34:00,61.0,39.0,29.98,SE,128,3.0,6.0,44,0.00,,,0.03,,2013-05-14 22:34:00,
2013-05-14 18:45:00,61.0,39.0,29.98,SE,128,3.0,6.0,44,0.00,,,0.03,,2013-05-14 22:45:00,
2013-05-14 18:54:00,61.0,37.0,29.98,East,97,1.0,4.0,41,0.00,,,0.03,,2013-05-14 22:54:00,
2013-05-14 19:03:00,61.0,38.0,29.98,SSE,154,1.0,4.0,43,0.00,,,0.03,,2013-05-14 23:03:00,
2013-05-14 19:12:00,61.0,38.0,29.98,SSE,154,1.0,4.0,43,0.00,,,0.03,,2013-05-14 23:12:00,
2013-05-14 19:22:00,61.0,38.0,29.98,SSE,153,1.0,4.0,42,0.00,,,0.03,,2013-05-14 23:22:00,
2013-05-14 19:32:00,61.0,38.0,29.98,ESE,115,0.0,3.0,43,0.00,,,0.03,,2013-05-14 23:32:00,
2013-05-14 19:44:00,61.0,38.0,29.98,ESE,115,0.0,3.0,43,0.00,,,0.03,,2013-05-14 23:44:00,
2013-05-14 19:53:00,61.0,40.0,29.98,SE,133,0.0,2.0,45,0.00,,,0.03,,2013-05-14 23:53:00,
2013-05-14 20:02:00,60.0,38.0,29.97,ESE,111,0.0,3.0,44,0.00,,,0.03,,2013-05-15 00:02:00,
2013-05-14 20:11:00,60.0,38.0,29.97,ESE,111,0.0,3.0,44,0.00,,,0.03,,2013-05-15 00:11:00,
2013-05-14 20:21:00,60.0,40.0,29.98,ESE,113,0.0,1.0,48,0.00,,,0.03,,2013-05-15 00:21:00,
2013-05-14 20:32:00,59.0,41.0,29.98,ESE,113,0.0,0.0,52,0.00,,,0.03,,2013-05-15 00:32:00,
2013-05-14 20:42:00,59.0,40.0,29.98,ESE,113,0.0,0.0,49,0.00,,,0.03,,2013-05-15 00:42:00,
2013-05-14 20:52:00,59.0,40.0,29.98,ESE,113,0.0,0.0,49,0.00,,,0.03,,2013-05-15 00:52:00,
2013-05-14 21:01:00,58.0,43.0,29.98,ESE,113,0.0,0.0,57,0.00,,,0.03,,2013-05-15 01:01:00,
2013-05-14 21:11:00,58.0,43.0,29.98,ESE,113,0.0,0.0,57,0.00,,,0.03,,2013-05-15 01:11:00,
2013-05-14 21:22:00,57.0,43.0,29.98,ESE,113,0.0,0.0,60,0.00,,,0.03,,2013-05-15 01:22:00,
2013-05-14 21:32:00,58.0,42.0,29.98,ESE,113,0.0,0.0,55,0.00,,,0.03,,2013-05-15 01:32:00,
2013-05-14 21:42:00,57.0,43.0,29.99,ESE,113,0.0,0.0,59,0.00,,,0.03,,2013-05-15 01:42:00,
2013-05-14 21:52:00,57.0,43.0,29.99,ESE,113,0.0,0.0,59,0.00,,,0.03,,2013-05-15 01:52:00,
2013-05-14 22:02:00,57.0,42.0,29.98,ESE,111,0.0,1.0,58,0.00,,,0.03,,2013-05-15 02:02:00,
2013-05-14 22:11:00,57.0,42.0,29.98,ESE,111,0.0,1.0,58,0.00,,,0.03,,2013-05-15 02:11:00,
2013-05-14 22:22:00,56.0,43.0,29.98,ESE,111,0.0,2.0,62,0.00,,,0.03,,2013-05-15 02:22:00,
2013-05-14 22:32:00,56.0,42.0,29.98,ESE,111,0.0,1.0,59,0.00,,,0.03,,2013-05-15 02:32:00,
2013-05-14 22:42:00,56.0,42.0,29.98,ESE,111,0.0,1.0,59,0.00,,,0.03,,2013-05-15 02:42:00,
2013-05-14 22:52:00,56.0,41.0,29.97,ESE,109,0.0,0.0,56,0.00,,,0.03,,2013-05-15 02:52:00,
2013-05-14 23:01:00,56.0,41.0,29.96,ESE,109,0.0,0.0,58,0.00,,,0.03,,2013-05-15 03:01:00,
2013-05-14 23:13:00,56.0,41.0,29.96,ESE,109,0.0,0.0,58,0.00,,,0.03,,2013-05-15 03:13:00,
2013-05-14 23:22:00,57.0,41.0,29.96,ESE,115,0.0,1.0,54,0.00,,,0.03,,2013-05-15 03:22:00,
2013-05-14 23:33:00,57.0,41.0,29.95,ESE,115,0.0,0.0,54,0.00,,,0.03,,2013-05-15 03:33:00,
2013-05-14 23:44:00,56.0,41.0,29.95,ESE,115,0.0,0.0,56,0.00,,,0.03,,2013-05-15 03:44:00,
2013-05-14 23:54:00,56.0,41.0,29.95,ESE,115,0.0,0.0,56,0.00,,,0.03,,2013-05-15 03:54:00,